• In Hungary
  • List of Countries
  • For 7 days
  • Water Temperature
  • Satellite Maps
  • Weather Map
  • News
  • Weather Widgets
  • user-avatar
    Login

    Hourly Weather Hatvan

    Today, 23 October, Tuesday

    Time Temperature Precipitation Wind Pressure Humidity
    00:00 +10°C° 0 mm 2 mps 757 mmHg 67%
    01:00 +10°C° 0 mm 1 mps 757 mmHg 72%
    02:00 +10°C° 0 mm 1 mps 757 mmHg 74%
    03:00 +9°C° 0 mm 1 mps 756 mmHg 75%
    04:00 +8°C° 0 mm 2 mps 756 mmHg 77%
    05:00 +8°C° 0 mm 2 mps 756 mmHg 78%
    06:00 +8°C° 0 mm 2 mps 756 mmHg 78%
    07:00 +8°C° 0 mm 2 mps 756 mmHg 78%
    08:00 +10°C° 0 mm 3 mps 756 mmHg 70%
    09:00 +12°C° 0 mm 4 mps 756 mmHg 62%
    10:00 +13°C° 0 mm 4 mps 755 mmHg 54%
    11:00 +14°C° 0 mm 5 mps 754 mmHg 50%
    12:00 +14°C° 0 mm 6 mps 754 mmHg 47%
    13:00 +15°C° 0 mm 6 mps 753 mmHg 44%
    14:00 +14°C° 0 mm 6 mps 752 mmHg 46%
    15:00 +14°C° 0 mm 5 mps 751 mmHg 48%
    16:00 +14°C° 0 mm 5 mps 750 mmHg 51%
    17:00 +14°C° 0 mm 6 mps 750 mmHg 51%
    18:00 +13°C° 0 mm 6 mps 750 mmHg 51%
    19:00 +12°C° 0 mm 7 mps 749 mmHg 51%
    20:00 +12°C° 0 mm 7 mps 749 mmHg 55%
    21:00 +11°C° 0 mm 8 mps 748 mmHg 59%
    22:00 +11°C° 0 mm 8 mps 748 mmHg 63%
    23:00 +11°C° 0 mm 8 mps 747 mmHg 63%

    Tomorrow, 24 October, Wednesday

    Time Temperature Precipitation Wind Pressure Humidity
    00:00 +11°C° 0 mm 8 mps 746 mmHg 63%
    01:00 +12°C° 0 mm 9 mps 745 mmHg 63%
    02:00 +12°C° 0 mm 9 mps 744 mmHg 63%
    03:00 +12°C° 0 mm 9 mps 743 mmHg 63%
    04:00 +12°C° 0 mm 9 mps 743 mmHg 63%
    05:00 +12°C° 0.5 mm 9 mps 742 mmHg 66%
    06:00 +12°C° 0.5 mm 9 mps 742 mmHg 68%
    07:00 +12°C° 0.5 mm 9 mps 742 mmHg 71%
    08:00 +11°C° 0.7 mm 9 mps 743 mmHg 65%
    09:00 +11°C° 0.7 mm 9 mps 743 mmHg 60%
    10:00 +10°C° 0.7 mm 9 mps 743 mmHg 54%
    11:00 +11°C° 0.1 mm 9 mps 744 mmHg 49%
    12:00 +11°C° 0.1 mm 9 mps 744 mmHg 44%
    13:00 +11°C° 0.1 mm 9 mps 745 mmHg 38%
    14:00 +10°C° 0 mm 9 mps 745 mmHg 39%
    15:00 +10°C° 0 mm 8 mps 745 mmHg 39%
    16:00 +9°C° 0 mm 7 mps 746 mmHg 40%
    17:00 +8°C° 0 mm 7 mps 747 mmHg 43%
    18:00 +8°C° 0 mm 6 mps 748 mmHg 46%
    19:00 +7°C° 0 mm 6 mps 748 mmHg 49%
    20:00 +5°C° 0 mm 6 mps 749 mmHg 50%
    21:00 +5°C° 0 mm 6 mps 750 mmHg 51%
    22:00 +5°C° 0 mm 6 mps 750 mmHg 52%
    23:00 +4°C° 0 mm 6 mps 751 mmHg 53%

    Day after tomorrow, 25 October, Thursday

    Time Temperature Precipitation Wind Pressure Humidity
    00:00 +4°C° 0 mm 6 mps 751 mmHg 55%
    01:00 +5°C° 0 mm 5 mps 751 mmHg 57%
    02:00 +5°C° 0 mm 5 mps 751 mmHg 60%
    03:00 +4°C° 0 mm 4 mps 751 mmHg 63%
    04:00 +4°C° 0 mm 4 mps 751 mmHg 65%
    05:00 +4°C° 0 mm 4 mps 751 mmHg 66%
    06:00 +4°C° 0 mm 4 mps 752 mmHg 66%
    07:00 +5°C° 0 mm 4 mps 752 mmHg 66%
    08:00 +5°C° 0.2 mm 4 mps 751 mmHg 69%
    09:00 +6°C° 0.2 mm 4 mps 751 mmHg 72%
    10:00 +6°C° 0.2 mm 5 mps 751 mmHg 74%
    11:00 +7°C° 0.2 mm 5 mps 750 mmHg 75%
    12:00 +8°C° 0.2 mm 5 mps 750 mmHg 75%
    13:00 +9°C° 0.2 mm 6 mps 749 mmHg 75%
    14:00 +10°C° 0 mm 5 mps 749 mmHg 73%
    15:00 +12°C° 0 mm 5 mps 749 mmHg 72%
    16:00 +13°C° 0 mm 5 mps 748 mmHg 70%
    17:00 +12°C° 0 mm 5 mps 748 mmHg 71%
    18:00 +12°C° 0 mm 5 mps 748 mmHg 72%
    19:00 +10°C° 0 mm 5 mps 748 mmHg 73%
    20:00 +10°C° 0 mm 5 mps 749 mmHg 74%
    21:00 +10°C° 0 mm 5 mps 749 mmHg 75%
    22:00 +10°C° 0 mm 5 mps 749 mmHg 76%
    23:00 +10°C° 0 mm 5 mps 749 mmHg 78%

    26 October, Friday

    Time Temperature Precipitation Wind Pressure Humidity
    00:00 +10°C° 0 mm 4 mps 749 mmHg 79%
    01:00 +10°C° 0 mm 4 mps 749 mmHg 81%
    02:00 +10°C° 0 mm 4 mps 749 mmHg 83%
    03:00 +9°C° 0 mm 3 mps 749 mmHg 85%
    04:00 +9°C° 0 mm 3 mps 749 mmHg 87%
    05:00 +9°C° 0 mm 3 mps 749 mmHg 87%
    06:00 +9°C° 0 mm 3 mps 749 mmHg 87%
    07:00 +9°C° 0 mm 2 mps 749 mmHg 88%
    08:00 +10°C° 0 mm 3 mps 749 mmHg 80%
    09:00 +12°C° 0 mm 3 mps 750 mmHg 73%
    10:00 +13°C° 0 mm 3 mps 750 mmHg 65%
    11:00 +14°C° 0 mm 3 mps 749 mmHg 62%
    12:00 +16°C° 0 mm 3 mps 749 mmHg 59%
    13:00 +16°C° 0 mm 3 mps 748 mmHg 56%
    14:00 +16°C° 0 mm 3 mps 748 mmHg 58%
    15:00 +14°C° 0 mm 3 mps 747 mmHg 60%
    16:00 +14°C° 0 mm 3 mps 747 mmHg 62%
    17:00 +13°C° 0 mm 3 mps 747 mmHg 64%
    18:00 +13°C° 0 mm 3 mps 747 mmHg 66%
    19:00 +14°C° 0 mm 2 mps 747 mmHg 69%
    20:00 +13°C° 0 mm 2 mps 747 mmHg 71%
    21:00 +13°C° 0 mm 2 mps 746 mmHg 74%
    22:00 +13°C° 0 mm 2 mps 746 mmHg 76%
    23:00 +12°C° 0 mm 2 mps 746 mmHg 80%

    27 October, Saturday

    Time Temperature Precipitation Wind Pressure Humidity
    00:00 +12°C° 0 mm 2 mps 746 mmHg 83%
    01:00 +12°C° 0 mm 2 mps 746 mmHg 87%
    02:00 +12°C° 0.1 mm 2 mps 746 mmHg 88%
    03:00 +10°C° 0.1 mm 2 mps 746 mmHg 89%
    04:00 +10°C° 0.1 mm 2 mps 746 mmHg 90%
    05:00 +10°C° 0 mm 2 mps 746 mmHg 86%
    06:00 +12°C° 0 mm 2 mps 746 mmHg 82%
    07:00 +12°C° 0 mm 2 mps 747 mmHg 78%
    08:00 +12°C° 0.1 mm 2 mps 747 mmHg 75%
    09:00 +12°C° 0.1 mm 2 mps 747 mmHg 73%
    10:00 +11°C° 0.1 mm 3 mps 747 mmHg 70%
    11:00 +12°C° 0.1 mm 2 mps 747 mmHg 70%
    12:00 +10°C° 0.1 mm 2 mps 747 mmHg 69%
    13:00 +10°C° 0.1 mm 2 mps 747 mmHg 68%
    14:00 +10°C° 0.6 mm 2 mps 746 mmHg 72%
    15:00 +9°C° 0.6 mm 2 mps 746 mmHg 75%
    16:00 +9°C° 0.6 mm 2 mps 746 mmHg 79%
    17:00 +9°C° 0.3 mm 2 mps 746 mmHg 80%
    18:00 +9°C° 0.3 mm 2 mps 746 mmHg 80%
    19:00 +9°C° 0.3 mm 2 mps 746 mmHg 81%
    20:00 +9°C° 0.3 mm 2 mps 746 mmHg 82%
    21:00 +8°C° 0.3 mm 2 mps 746 mmHg 83%
    22:00 +8°C° 0.3 mm 2 mps 746 mmHg 84%
    23:00 +8°C° 0.4 mm 2 mps 746 mmHg 85%

    28 October, Sunday

    Time Temperature Precipitation Wind Pressure Humidity
    00:00 +9°C° 0.4 mm 2 mps 745 mmHg 86%
    01:00 +9°C° 0.4 mm 2 mps 745 mmHg 86%
    02:00 +9°C° 0.2 mm 3 mps 745 mmHg 87%
    03:00 +9°C° 0.2 mm 3 mps 745 mmHg 88%
    04:00 +9°C° 0.2 mm 3 mps 744 mmHg 89%
    05:00 +9°C° 0.1 mm 3 mps 744 mmHg 88%
    06:00 +9°C° 0.1 mm 3 mps 744 mmHg 88%
    07:00 +9°C° 0.1 mm 3 mps 744 mmHg 88%
    08:00 +10°C° 0.3 mm 3 mps 744 mmHg 85%
    09:00 +11°C° 0.3 mm 3 mps 744 mmHg 83%
    10:00 +12°C° 0.3 mm 4 mps 744 mmHg 81%
    11:00 +13°C° 0.5 mm 3 mps 743 mmHg 80%
    12:00 +14°C° 0.5 mm 3 mps 743 mmHg 79%
    13:00 +16°C° 0.5 mm 3 mps 743 mmHg 78%
    14:00 +16°C° 0.9 mm 3 mps 742 mmHg 79%
    15:00 +16°C° 0.9 mm 3 mps 742 mmHg 80%
    16:00 +15°C° 0.9 mm 2 mps 742 mmHg 81%
    17:00 +16°C° 0.5 mm 2 mps 742 mmHg 80%
    18:00 +16°C° 0.5 mm 3 mps 742 mmHg 79%
    19:00 +16°C° 0.5 mm 3 mps 742 mmHg 78%
    20:00 +16°C° 0.2 mm 3 mps 742 mmHg 74%
    21:00 +16°C° 0.2 mm 3 mps 742 mmHg 71%
    22:00 +17°C° 0.2 mm 4 mps 742 mmHg 67%
    23:00 +15°C° 0.1 mm 4 mps 741 mmHg 67%

    29 October, Monday

    Time Temperature Precipitation Wind Pressure Humidity
    00:00 +15°C° 0.1 mm 4 mps 741 mmHg 67%
    01:00 +15°C° 0.1 mm 4 mps 741 mmHg 66%
    02:00 +15°C° 0.2 mm 4 mps 740 mmHg 66%
    03:00 +16°C° 0.2 mm 5 mps 740 mmHg 65%
    04:00 +16°C° 0.2 mm 5 mps 740 mmHg 64%
    05:00 +16°C° 0.2 mm 5 mps 739 mmHg 66%
    06:00 +16°C° 0.2 mm 6 mps 739 mmHg 68%
    07:00 +15°C° 0.2 mm 6 mps 739 mmHg 70%
    08:00 +16°C° 0.3 mm 7 mps 739 mmHg 69%
    09:00 +17°C° 0.3 mm 7 mps 739 mmHg 68%
    10:00 +17°C° 0.3 mm 8 mps 739 mmHg 66%
    11:00 +17°C° 0.3 mm 7 mps 739 mmHg 66%
    12:00 +17°C° 0.3 mm 7 mps 739 mmHg 66%
    13:00 +18°C° 0.3 mm 7 mps 739 mmHg 66%
    14:00 +17°C° 0.1 mm 6 mps 739 mmHg 67%
    15:00 +17°C° 0.1 mm 5 mps 739 mmHg 68%
    16:00 +18°C° 0.1 mm 4 mps 739 mmHg 69%
    17:00 +18°C° 0.4 mm 4 mps 739 mmHg 72%
    18:00 +17°C° 0.4 mm 4 mps 739 mmHg 75%
    19:00 +17°C° 0.4 mm 4 mps 739 mmHg 78%
    20:00 +17°C° 0.5 mm 4 mps 739 mmHg 77%
    21:00 +17°C° 0.5 mm 4 mps 739 mmHg 77%
    22:00 +17°C° 0.5 mm 4 mps 739 mmHg 77%
    23:00 +16°C° 1.2 mm 3 mps 739 mmHg 79%
    Show more